Date String (YYYY-MM-DD hh:mm:ss) UTC,Instrument flags,Ambient pressure (hPa),Sample flow (lpm),Bypass flow (lpm),Sample temperature (°C),Ambient temperature (°C),ASC tube jacket temperature (°C),LED temperature (°C),Box temperature (°C),Sample RH (%),Span deviation,Mass concentration (μg/m³),Mass concentration (μg/m³),Mass concentration (μg/m³)
DateTimeUTC,F1_M11,P_M11,Q1_M11,Q2_M11,T1_M11,T2_M11,T3_M11,T4_M11,T5_M11,U1_M11,ZSPAN_M11,X2_M11,X0_M11,X1_M11
2023-05-22 09:00:00,,0832.1,5.01,0.00,29.1,27.2,00.0,37.5,30.6,18.1,0003.3,0016.92,0022.42,0015.93
2023-05-22 09:01:00,,0832.0,5.00,0.00,29.1,27.2,00.0,37.5,30.6,18.1,0003.3,0016.92,0022.32,0015.93
2023-05-22 09:02:00,,0832.1,5.00,0.00,29.1,27.2,00.0,37.5,30.6,18.2,0003.2,0016.93,0022.33,0015.93
2023-05-22 09:03:00,,0832.2,5.01,0.00,29.1,27.2,00.0,37.5,30.6,18.2,0003.2,0016.95,0022.23,0015.96
2023-05-22 09:04:00,,0831.9,5.02,0.00,29.1,27.2,00.0,37.5,30.6,18.2,0003.1,0016.98,0022.18,0015.98
2023-05-22 09:05:00,,0832.2,5.00,0.00,29.0,27.2,00.0,37.5,30.6,18.2,0003.2,0016.97,0022.06,0016.01
2023-05-22 09:06:00,,0832.2,4.99,0.00,29.0,27.2,00.0,37.5,30.6,18.3,0003.3,0016.93,0021.98,0016.01
2023-05-22 09:07:00,,0832.1,4.99,0.00,29.0,27.1,00.0,37.4,30.6,18.4,0003.4,0016.89,0021.96,0016.01
2023-05-22 09:08:00,,0832.1,5.01,0.00,29.0,27.1,00.0,37.4,30.6,18.3,0003.5,0016.83,0022.17,0015.99
2023-05-22 09:09:00,,0832.0,5.01,0.00,29.0,27.1,00.0,37.4,30.6,18.4,0003.5,0016.80,0022.28,0015.97
2023-05-22 09:10:00,,0831.7,5.00,0.00,29.0,27.1,00.0,37.4,30.6,18.3,0003.6,0016.75,0022.18,0015.91
2023-05-22 09:11:00,,0831.7,5.00,0.00,29.0,27.1,00.0,37.4,30.6,18.2,0003.5,0016.69,0022.05,0015.86
2023-05-22 09:12:00,,0831.7,5.00,0.00,29.0,27.1,00.0,37.4,30.6,18.3,0003.6,0016.65,0021.99,0015.83
2023-05-22 09:13:00,,0831.7,5.01,0.00,29.0,27.1,00.0,37.4,30.6,18.3,0003.6,0016.63,0021.94,0015.82
2023-05-22 09:14:00,,0831.7,5.00,0.00,29.0,27.1,00.0,37.4,30.5,18.4,0003.6,0016.62,0021.96,0015.80
2023-05-22 09:15:00,,0831.7,4.99,0.00,29.0,27.1,00.0,37.4,30.5,18.2,0003.5,0016.61,0022.02,0015.78
2023-05-22 09:16:00,,0831.7,5.00,0.00,29.0,27.1,00.0,37.4,30.5,18.2,0003.5,0016.59,0022.04,0015.74
2023-05-22 09:17:00,,0831.7,5.00,0.00,29.0,27.1,00.0,37.4,30.5,18.3,0003.5,0016.59,0022.02,0015.73
2023-05-22 09:18:00,,0831.7,5.00,0.00,29.0,27.1,00.0,37.4,30.5,18.3,0003.4,0016.57,0021.95,0015.70
2023-05-22 09:19:00,,0831.7,5.00,0.00,28.9,27.1,00.0,37.4,30.5,18.3,0003.3,0016.63,0021.74,0015.71
2023-05-22 09:20:00,,0831.7,5.00,0.00,28.9,27.1,00.0,37.4,30.5,18.3,0003.3,0016.66,0021.78,0015.73
2023-05-22 09:21:00,,0831.7,4.99,0.00,28.9,27.0,00.0,37.3,30.5,18.3,0003.2,0016.69,0022.10,0015.77
2023-05-22 09:22:00,,0831.7,5.00,0.00,28.9,27.0,00.0,37.3,30.5,18.3,0003.1,0016.71,0022.38,0015.78
2023-05-22 09:23:00,,0831.7,5.00,0.00,28.9,27.0,00.0,37.3,30.5,18.4,0003.1,0016.74,0022.63,0015.78
2023-05-22 09:24:00,,0831.7,5.00,0.00,28.9,27.0,00.0,37.3,30.5,18.3,0003.3,0016.77,0022.74,0015.77
2023-05-22 09:25:00,,0831.7,5.00,0.00,28.9,27.0,00.0,37.3,30.4,18.4,0003.3,0016.78,0022.67,0015.79
2023-05-22 09:26:00,,0831.7,5.00,0.00,28.9,27.0,00.0,37.3,30.4,18.3,0003.3,0016.76,0022.59,0015.76
2023-05-22 09:27:00,,0831.7,5.00,0.00,28.9,27.0,00.0,37.3,30.4,18.3,0003.2,0016.72,0022.58,0015.75
2023-05-22 09:28:00,,0831.7,5.00,0.00,28.9,27.0,00.0,37.3,30.4,18.3,0003.1,0016.70,0022.95,0015.72
2023-05-22 09:29:00,,0831.7,5.00,0.00,28.9,27.0,00.0,37.3,30.4,18.3,0003.1,0016.69,0023.04,0015.72
2023-05-22 09:30:00,,0831.7,5.00,0.00,28.9,27.0,00.0,37.3,30.4,18.3,0003.1,0016.65,0022.92,0015.72
2023-05-22 09:31:00,,0831.7,5.00,0.00,28.9,27.0,00.0,37.3,30.4,18.4,0003.1,0016.61,0022.72,0015.71
2023-05-22 09:32:00,,0831.7,5.00,0.00,28.9,27.0,00.0,37.3,30.4,18.4,0003.1,0016.62,0022.51,0015.71
2023-05-22 09:33:00,,0831.7,5.01,0.00,28.9,27.0,00.0,37.3,30.4,18.4,0003.1,0016.63,0022.28,0015.73
2023-05-22 09:34:00,,0831.6,5.00,0.00,28.9,27.0,00.0,37.2,30.4,18.4,0003.1,0016.66,0022.13,0015.76
2023-05-22 09:35:00,,0831.7,5.00,0.00,28.9,27.0,00.0,37.2,30.4,18.4,0002.9,0016.68,0022.14,0015.79
2023-05-22 09:36:00,,0831.6,5.00,0.00,28.8,27.0,00.0,37.2,30.4,18.4,0003.0,0016.69,0022.26,0015.78
2023-05-22 09:37:00,,0831.6,4.99,0.00,28.8,27.0,00.0,37.2,30.4,18.4,0002.9,0016.71,0022.28,0015.81
2023-05-22 09:38:00,,0831.6,5.00,0.00,28.8,27.0,00.0,37.2,30.4,18.4,0002.9,0016.66,0022.10,0015.82
2023-05-22 09:39:00,,0831.6,5.00,0.00,28.8,26.9,00.0,37.2,30.4,18.4,0002.9,0016.68,0021.76,0015.85
2023-05-22 09:40:00,,0831.6,5.01,0.00,28.8,26.9,00.0,37.2,30.4,18.4,0003.0,0016.71,0021.71,0015.87
2023-05-22 09:41:00,,0831.6,4.99,0.00,28.8,26.9,00.0,37.2,30.4,18.4,0003.0,0016.74,0021.90,0015.88
2023-05-22 09:42:00,,0831.6,5.01,0.00,28.8,26.9,00.0,37.2,30.4,18.5,0002.9,0016.78,0022.40,0015.89
2023-05-22 09:43:00,,0831.6,5.00,0.00,28.8,26.9,00.0,37.2,30.4,18.5,0002.8,0016.78,0022.48,0015.89
2023-05-22 09:44:00,,0831.6,5.00,0.00,28.8,26.9,00.0,37.2,30.4,18.4,0002.8,0016.76,0022.49,0015.86
2023-05-22 09:45:00,,0831.6,5.01,0.00,28.8,26.9,00.0,37.2,30.3,18.4,0002.6,0016.73,0022.50,0015.82
2023-05-22 09:46:00,,0831.6,5.00,0.00,28.8,26.9,00.0,37.2,30.4,18.4,0002.5,0016.68,0022.42,0015.80
2023-05-22 09:47:00,,0831.6,4.99,0.00,28.8,26.9,00.0,37.2,30.3,18.4,0002.4,0016.68,0022.40,0015.78
2023-05-22 09:48:00,,0831.7,4.99,0.00,28.8,26.9,00.0,37.2,30.3,18.4,0002.5,0016.65,0022.37,0015.75
2023-05-22 09:49:00,,0831.6,5.00,0.00,28.8,26.9,00.0,37.2,30.3,18.5,0002.7,0016.70,0022.59,0015.76
2023-05-22 09:50:00,,0831.6,4.99,0.00,28.8,26.9,00.0,37.1,30.3,18.4,0002.7,0016.76,0023.20,0015.78
2023-05-22 09:51:00,,0831.6,4.99,0.00,28.8,26.9,00.0,37.1,30.3,18.4,0002.7,0016.79,0023.34,0015.79
2023-05-22 09:52:00,,0831.6,5.00,0.00,28.7,26.9,00.0,37.1,30.3,18.6,0002.9,0016.78,0023.22,0015.77
2023-05-22 09:53:00,,0831.6,5.00,0.00,28.7,26.9,00.0,37.1,30.3,18.4,0002.9,0016.74,0022.79,0015.76
2023-05-22 09:54:00,,0831.6,5.00,0.00,28.7,26.9,00.0,37.1,30.3,18.4,0002.9,0016.73,0022.64,0015.77
2023-05-22 09:55:00,,0831.6,5.00,0.00,28.7,26.9,00.0,37.1,30.3,18.3,0002.8,0016.74,0022.68,0015.79
2023-05-22 09:56:00,,0831.6,5.01,0.00,28.7,26.9,00.0,37.1,30.3,18.3,0003.0,0016.77,0022.70,0015.84
2023-05-22 09:57:00,,0831.6,5.01,0.00,28.7,26.9,00.0,37.1,30.3,18.3,0003.2,0016.80,0022.72,0015.87
2023-05-22 09:58:00,,0831.6,5.00,0.00,28.7,26.9,00.0,37.1,30.3,18.3,0003.3,0016.80,0022.71,0015.90
2023-05-22 09:59:00,,0831.5,5.00,0.00,28.7,26.8,00.0,37.1,30.3,18.4,0003.3,0016.85,0022.97,0015.93
